{"data":{"norad_id":20253,"epoch":"2026-05-24T23:12:23.330016Z","epoch_age_seconds":84734,"freshness":"FRESH","line1":"1 20253U 89077A   26144.96693669 -.00000377  00000+0  00000+0 0  9990","line2":"2 20253  12.4281 351.3052 0005996  30.1719 334.7907  1.00266056260334","mean_motion":1.00266056,"eccentricity":0.0005996,"inclination_deg":12.4281,"raan_deg":351.3052,"arg_perigee_deg":30.1719,"mean_anomaly_deg":334.7907,"bstar":0,"rev_number":26033,"period_min":1436.178959707,"perigee_km":35762.918148015,"apogee_km":35813.484020646,"semimajor_km":42166.338084331,"source":"CELESTRAK","updated_at":"2026-05-25T13:38:13.803639Z"}}